CW0179 Weather Reports


time (UTC)temp
C
wind
direction
speed
KPH
gust
KPH
rain 1hr
cm
rain 24hr
cm
rain mn
cm
humidity
%
barometer
mb
20260905221421 25 150 0.0 1.6 0.00 0.00 0.00 70 1009.3
20260905220359 25 223 0.0 3.2 0.00 0.00 0.00 69 1009.2
20260905215405 25 180 0.0 0.0 0.00 0.00 0.00 68 1009.2
20260905214405 25 170 0.0 0.0 0.00 0.00 0.00 69 1009.3
20260905213349 25 170 0.0 0.0 0.00 0.00 0.00 68 1009.2
20260905212346 25 169 0.0 0.0 0.00 0.00 0.00 68 1009.0
20260905211407 25 203 0.0 0.0 0.00 0.00 0.00 68 1009.0
20260905210410 25 184 0.0 6.4 0.00 0.00 0.00 65 1009.0
20260905205418 26 171 0.0 9.7 0.00 0.00 0.00 60 1008.8
20260905203207 27 171 1.6 3.2 0.00 0.00 0.00 60 1008.5
20260905202155 27 134 0.0 8.0 0.00 0.00 0.00 57 1008.5
20260905201210 26 183 0.0 4.8 0.00 0.00 0.00 63 1008.5
20260905200215 25 150 0.0 4.8 0.00 0.00 0.00 63 1008.6
20260905195236 26 176 0.0 3.2 0.00 0.00 0.00 62 1008.5
20260905194211 26 144 0.0 9.7 0.00 0.00 0.00 59 1008.5
20260905193204 27 181 1.6 6.4 0.00 0.00 0.00 57 1008.5
20260905192137 27 150 0.0 8.0 0.00 0.00 0.00 57 1008.5
20260905191116 27 98 0.0 4.8 0.00 0.00 0.00 58 1008.5
20260905184906 26 295 0.0 3.2 0.00 0.00 0.00 58 1008.6
20260905183913 27 182 0.0 6.4 0.00 0.00 0.00 56 1008.6
20260905182921 27 207 0.0 9.7 0.00 0.00 0.00 55 1008.7
20260905181902 27 190 1.6 9.7 0.00 0.00 0.00 55 1008.8
20260905180834 27 195 0.0 8.0 0.00 0.00 0.00 60 1008.8
20260905174724 26 162 1.6 8.0 0.00 0.00 0.00 59 1009.0
20260905172607 26 113 1.6 8.0 0.00 0.00 0.00 61 1009.1
20260905171546 26 211 0.0 8.0 0.00 0.00 0.00 59 1009.1
20260905170542 26 187 0.0 9.7 0.00 0.00 0.00 60 1009.2
20260905165539 26 167 1.6 9.7 0.00 0.00 0.00 60 1009.3
20260905164541 26 119 1.6 9.7 0.00 0.00 0.00 62 1009.3
20260905163559 25 129 0.0 6.4 0.00 0.00 0.00 65 1009.3
20260905162551 25 146 1.6 9.7 0.00 0.00 0.00 65 1009.2
20260905160506 24 191 0.0 8.0 0.00 0.00 0.00 66 1009.2
20260905155448 25 210 0.0 6.4 0.00 0.00 0.00 67 1009.2
20260905154430 25 297 1.6 12.9 0.00 0.00 0.00 66 1009.2
20260905153407 25 197 1.6 12.9 0.00 0.00 0.00 66 1009.2
20260905151212 25 190 1.6 9.7 0.00 0.00 0.00 68 1009.2
20260905150150 25 141 1.6 9.7 0.00 0.00 0.00 69 1009.2
20260905145148 25 271 1.6 9.7 0.00 0.00 0.00 70 1009.2
20260905144205 25 239 0.0 4.8 0.00 0.00 0.00 70 1009.3
20260905143132 24 115 0.0 4.8 0.00 0.00 0.00 73 1009.3
20260905142121 23 174 1.6 12.9 0.00 0.00 0.00 77 1009.3
20260905141100 22 292 0.0 12.9 0.00 0.00 0.00 77 1009.3
20260905140052 22 188 1.6 9.7 0.00 0.00 0.00 77 1009.4
20260905135056 23 211 1.6 11.3 0.00 0.00 0.00 76 1009.3
20260905134034 22 116 1.6 9.7 0.00 0.00 0.00 77 1009.4
20260905133025 22 161 0.0 0.0 0.00 0.00 0.00 81 1009.5
20260905125713 21 163 0.0 0.0 0.00 0.00 0.00 80 1009.6
20260905124649 21 174 0.0 3.2 0.00 0.00 0.00 80 1009.6
20260905123616 21 165 0.0 3.2 0.00 0.00 0.00 80 1009.7
20260905122611 21 162 0.0 3.2 0.00 0.00 0.00 82 1009.7
20260905121557 20 208 0.0 0.0 0.00 0.00 0.00 84 1009.7
20260905120539 20 191 0.0 0.0 0.00 0.00 0.00 88 1009.6
20260905115524 19 163 0.0 0.0 0.00 0.00 0.00 89 1009.7
20260905114512 19 167 0.0 0.0 0.00 0.00 0.00 89 1009.6
20260905113506 18 167 0.0 0.0 0.00 0.00 0.00 92 1009.4
20260905112531 18 167 0.0 0.0 0.00 0.00 0.00 94 1009.2
20260905111535 17 167 0.0 0.0 0.00 0.00 0.00 97 1009.2
20260905110522 16 167 0.0 0.0 0.00 0.00 0.00 97 1009.0
20260905080441 20 169 0.0 0.0 0.00 0.00 0.00 80 1008.5
20260905074307 20 194 0.0 11.3 0.00 0.30 0.00 79 1008.4
20260905073304 20 184 1.6 6.4 0.00 0.81 0.00 79 1008.3
20260905072329 20 161 0.0 3.2 0.00 0.81 0.00 79 1008.4
20260905071343 20 155 0.0 4.8 0.00 0.81 0.00 79 1008.5
20260905070338 21 153 0.0 3.2 0.00 0.81 0.00 79 1008.5
20260905065323 21 171 0.0 0.0 0.00 1.27 0.00 78 1008.5
20260905064307 21 225 0.0 1.6 0.00 1.40 0.00 79 1008.6
20260905063233 21 156 0.0 0.0 0.00 1.40 0.00 79 1008.6
20260905062212 21 222 0.0 3.2 0.00 1.75 0.00 80 1008.8
20260905061218 20 165 0.0 0.0 0.00 2.51 0.00 80 1008.8
20260905060159 20 167 0.0 8.0 0.00 2.57 0.00 81 1008.9
20260905055207 20 160 0.0 3.2 0.00 2.59 0.00 81 1009.0
20260905053051 20 149 0.0 3.2 0.00 2.77 0.00 82 1009.1
20260905050930 20 155 0.0 0.0 0.00 2.79 0.00 84 1009.3
20260905045937 20 152 0.0 1.6 0.00 2.82 0.00 85 1009.4
20260905044956 20 187 0.0 3.2 0.00 2.82 0.00 86 1009.5
20260905044000 20 186 0.0 0.0 0.00 2.82 0.00 90 1009.6
20260905043002 19 165 0.0 0.0 0.00 2.82 0.00 94 1009.7
20260905042001 19 165 0.0 0.0 0.00 2.82 0.00 97 1009.5
20260905041005 19 165 0.0 0.0 0.00 2.82 0.00 97 1009.7
20260905040020 19 165 0.0 0.0 0.00 2.82 0.00 98 1009.7
20260905033937 18 165 0.0 0.0 0.00 2.92 2.82 98 1009.6
20260905032920 18 143 0.0 0.0 0.00 3.07 2.82 98 1009.6
20260905031845 18 143 0.0 0.0 0.00 3.07 2.82 98 1009.7
20260905025645 19 143 0.0 0.0 0.00 3.07 2.82 98 1009.6
20260905024618 19 143 0.0 0.0 0.00 3.07 2.82 97 1009.5
20260905023633 20 143 0.0 0.0 0.00 3.07 2.82 97 1009.5
20260905021530 20 143 0.0 0.0 0.00 3.07 2.82 97 1009.5
20260905020519 20 143 0.0 0.0 0.00 3.07 2.82 97 1009.6
20260905015452 20 143 0.0 0.0 0.00 3.07 2.82 97 1009.5
20260905014427 20 143 0.0 0.0 0.00 3.07 2.82 96 1009.5
20260905013412 20 143 0.0 0.0 0.00 3.07 2.82 96 1009.5
20260905012420 20 143 0.0 0.0 0.00 3.07 2.82 95 1009.5
20260905010214 20 143 0.0 0.0 0.00 3.07 2.82 94 1009.7
20260905004025 20 143 0.0 0.0 0.00 3.07 2.82 93 1009.5
20260905003030 21 143 0.0 0.0 0.00 3.07 2.82 92 1009.4
20260905002000 21 143 0.0 0.0 0.00 3.07 2.82 91 1009.4
20260905000938 21 143 0.0 0.0 0.00 3.07 2.82 90 1009.3
20260904235922 22 143 0.0 0.0 0.00 3.07 2.82 89 1009.4
20260904234914 22 143 0.0 0.0 0.00 3.07 2.82 88 1009.3
20260904233855 23 144 0.0 0.0 0.00 3.07 2.82 86 1009.2
20260904232834 23 143 0.0 0.0 0.00 3.07 2.82 85 1009.2
20260904231814 23 143 0.0 0.0 0.00 3.07 2.82 83 1009.1
20260904230827 24 143 0.0 0.0 0.00 3.07 2.82 81 1009.1
20260904225829 24 143 0.0 0.0 0.00 3.07 2.82 80 1009.0
20260904224843 25 143 0.0 0.0 0.00 3.07 2.82 78 1009.1
20260904223825 25 142 0.0 0.0 0.00 3.07 2.82 75 1009.1